Flag for Norway Weather past 2 weeks in Grimstad, Norway

Now
58 °F

Cool.


Feels Like: 58 °F
Forecast: 52 / 65 °F
Wind: 1 mph from Northwest

Location: Torungen Fyr

Current Time: Sep 20, 2014 at 1:01:02 PM

Latest Report: Sep 20, 2014 at 11:00 AM


Visibility: N/A

Pressure: 30.00 "Hg

Humidity: 75%

Dew point: 50 °F

Location of GrimstadLocation

Historic Weather in Grimstad — Graph

°F

Grimstad temperature yesterday

Maximum temperature yesterday: 60 °F (at 5:00 PM)
Minimum temperature yesterday: 54 °F (at 7:00 AM)
Average temperature yesterday: 57 °F

Past Weeks' High & Low Weather Summary

 TemperatureHumidityPressure
High64 °F (Sep 7, 12:00 AM)97% (Sep 7, 10:00 AM)30.45 "Hg (Sep 7, 10:00 AM)
Low51 °F (Sep 20, 7:00 AM)67% (Sep 10, 11:00 AM)29.79 "Hg (Sep 9, 5:00 AM)
Average58 °F85%30.15 "Hg
* Reported Sep 5 11:00 AM — Sep 20 11:00 AM, Grimstad, Weather by CustomWeather, © 2014

Note: Actual official high and low records may vary slightly from our data, if they occured in-between our weather recording intervals... More about our weather records

Advertising

Grimstad weather history for previous 24 hours

 ConditionsComfort  
Time TempWeatherWind HumidityBarometerVisibility
11:00 AM
Sep 20
58 °FCool.1 mph75%30.00 "HgN/A
10:00 AM55 °FCool.2 mph78%30.00 "HgN/A
9:00 AM52 °FCool.3 mph84%30.00 "HgN/A
8:00 AM51 °FCool.2 mph84%30.01 "HgN/A
7:00 AM51 °FCool.3 mph87%30.01 "HgN/A
6:00 AM51 °FCool.3 mph85%30.00 "HgN/A
5:00 AM51 °FCool.5 mph87%30.01 "HgN/A
4:00 AM52 °FCool.5 mph86%30.02 "HgN/A
3:00 AM52 °FCool.5 mph87%30.02 "HgN/A
2:00 AM53 °FCool.3 mph89%30.03 "HgN/A
1:00 AM54 °FCool.3 mph91%30.04 "HgN/A
12:00 AM55 °FCool.2 mph93%30.04 "HgN/A
11:00 PM
Sep 19
56 °FCool.2 mph94%30.05 "HgN/A
10:00 PM56 °FCool.2 mph93%30.06 "HgN/A
9:00 PM58 °FCool.1 mph91%30.06 "HgN/A
8:00 PM59 °FCool.2 mph90%30.06 "HgN/A
7:00 PM59 °FCool.3 mph89%30.05 "HgN/A
6:00 PM60 °FCool.3 mph87%30.06 "HgN/A
5:00 PM60 °FCool.3 mph85%30.06 "HgN/A
4:00 PM59 °FCool.5 mph87%30.07 "HgN/A
3:00 PM59 °FCool.5 mph86%30.08 "HgN/A
2:00 PM59 °FCool.6 mph87%30.09 "HgN/A
1:00 PM59 °FCool.6 mph85%30.10 "HgN/A
Weather by CustomWeather, © 2014

See weather overviewHow to use our weather pages